Simultaneous Nadir Overpasses (SNOs) Predictions

Prediction of SNOs between GOES-14 and NOAA-20 Satellite Orbit:

Table of predicted SNOs for the next 14.0 days since TLE Epoch: 6/12/2020
Index Date Time (GOES-14) GOES-14 Lat,Lon NOAA-20 Lat,Lon Distance(km) Time Diff (sec)
1 06/12/2020 20:17:34 0.04,-104.34 0.36,-102.87 168.04 80
2 06/14/2020 08:36:41 -0.07,-104.17 0.81,-108.14 452.26 80
3 06/15/2020 08:20:36 -0.06,-104.17 -0.18,-103.60 65.21 80
4 06/17/2020 20:21:08 0.07,-104.37 0.07,-104.39 2.29 80
5 06/20/2020 08:24:09 -0.10,-104.19 0.12,-105.12 106.39 80
6 06/21/2020 08:08:04 -0.08,-104.19 -0.87,-100.58 410.72 80
7 06/22/2020 20:27:21 0.12,-104.38 -0.22,-105.91 174.21 80
8 06/23/2020 20:11:16 0.10,-104.38 0.77,-101.37 342.55 80
9 06/25/2020 08:30:23 -0.14,-104.19 0.40,-106.64 279.34 80
10 06/26/2020 08:14:18 -0.12,-104.19 -0.59,-102.10 237.71 80




NCC Satellite Simultaneous Nadir Overpasses (SNOs) Prediction Service
